Home   Weather   Lord Howe Island   Past weeks

Flag for Australia Past Weather in Lord Howe Island, Lord Howe Island, Australia — Yesterday and Last 2 Weeks

Now
69 °F

Mild.


Feels Like: 69 °F
Forecast: 67 / 69 °F
Wind: 15 mph from Southwest

Location: Lord Howe Island

Current Time: Dec 10, 2016 at 4:35:42 am

Latest Report: Dec 10, 2016 at 3:00 am


Visibility: N/A

Pressure: 29.98 "Hg

Humidity: 47%

Dew Point: 48 °F

Location of Lord Howe IslandLocation

Past Weather in Lord Howe Island — Graph

°F

Lord Howe Island Temperature Yesterday

Maximum temperature yesterday: 79 °F (at 11:00 am)
Minimum temperature yesterday: 71 °F (at 11:00 pm)
Average temperature yesterday: 74 °F

High & Low Weather Summary for the Past Weeks

 TemperatureHumidityPressure
High79 °F (Dec 4, 11:00 am)94% (Dec 7, 12:00 pm)30.09 "Hg (Dec 7, 12:00 pm)
Low58 °F (Nov 27, 12:00 am)47% (Dec 10, 3:00 am)29.70 "Hg (Dec 9, 12:00 pm)
Average71 °F76%29.97 "Hg
* Reported Nov 25 3:00 am — Dec 10 3:00 am, Lord Howe Island, Weather by CustomWeather, © 2016

Note: Actual official high and low records may vary slightly from our data, if they occured in-between our weather recording intervals... More about our weather records

Advertising

Lord Howe Island Weather History for the Previous 24 Hours

Scroll right to see more
 ConditionsComfort  
Time TempWeatherWind HumidityBarometerVisibility
3:00 am
Sat, Dec 10
69 °FMild.15 mph47%29.98 "HgN/A
2:00 am69 °FMild.14 mph56%29.98 "HgN/A
12:00 am70 °FPassing clouds.15 mph63%29.98 "HgN/A
11:00 pm
Fri, Dec 9
71 °FMild.15 mph57%29.97 "HgN/A
9:00 pm71 °FPassing clouds.16 mph71%29.91 "HgN/A
8:00 pm72 °FMild.15 mph68%29.87 "HgN/A
6:00 pm73 °FMild.16 mph70%29.80 "HgN/A
5:00 pm73 °FMild.16 mph75%29.76 "HgN/A
3:00 pm73 °FOvercast.16 mph83%29.74 "HgN/A
2:00 pm73 °FMild.17 mph87%29.72 "HgN/A
12:00 pm76 °FOvercast.14 mph93%29.70 "Hg2 mi
11:00 am79 °FWarm.13 mph79%29.70 "HgN/A
9:00 am76 °FOvercast.13 mph84%29.72 "HgN/A
8:00 am75 °FMild.10 mph86%29.73 "HgN/A
6:00 am74 °FLow clouds.8 mph89%29.74 "HgN/A
5:00 am74 °FMild.7 mph90%29.73 "HgN/A
Weather by CustomWeather, © 2016

See weather overviewHow to use our weather pages